| time (UTC) | temp F | wind direction | speed MPH | gust MPH | rain 1hr in | rain 24hr in | rain mn in | humidity % | barometer mb |
| 20260906062003 | 61 | 256 | 5.0 | 10.0 | 0.00 | 0.08 | 0.07 | 73 | 1022.7 |
| 20260906061503 | 61 | 250 | 6.0 | 10.0 | 0.00 | 0.08 | 0.07 | 73 | 1022.6 |
| 20260906061003 | 60 | 242 | 7.0 | 10.0 | 0.00 | 0.08 | 0.07 | 73 | 1022.6 |
| 20260906060504 | 60 | 240 | 8.0 | 10.0 | 0.00 | 0.08 | 0.07 | 73 | 1022.6 |
| 20260906060024 | 60 | 246 | 7.0 | 14.0 | 0.00 | 0.08 | 0.07 | 74 | 1022.7 |
| 20260906055524 | 60 | 240 | 6.0 | 14.0 | 0.00 | 0.08 | 0.07 | 73 | 1022.7 |
| 20260906055004 | 60 | 222 | 5.0 | 11.0 | 0.00 | 0.08 | 0.07 | 74 | 1022.6 |
| 20260906054504 | 60 | 230 | 5.0 | 10.0 | 0.00 | 0.08 | 0.07 | 75 | 1022.5 |
| 20260906054004 | 60 | 243 | 5.0 | 10.0 | 0.00 | 0.08 | 0.07 | 75 | 1022.5 |
| 20260906053503 | 60 | 234 | 5.0 | 10.0 | 0.00 | 0.08 | 0.07 | 75 | 1022.4 |
| 20260906053004 | 60 | 216 | 5.0 | 10.0 | 0.00 | 0.08 | 0.07 | 76 | 1022.4 |
| 20260906052503 | 60 | 206 | 5.0 | 10.0 | 0.00 | 0.08 | 0.07 | 76 | 1022.2 |
| 20260906052004 | 61 | 208 | 5.0 | 11.0 | 0.00 | 0.08 | 0.07 | 76 | 1022.2 |
| 20260906051504 | 61 | 233 | 5.0 | 11.0 | 0.00 | 0.08 | 0.07 | 75 | 1022.1 |
| 20260906051003 | 61 | 239 | 5.0 | 9.0 | 0.00 | 0.08 | 0.07 | 74 | 1022.1 |
| 20260906050504 | 61 | 241 | 5.0 | 9.0 | 0.00 | 0.08 | 0.07 | 75 | 1022.1 |
| 20260906050003 | 61 | 246 | 6.0 | 9.0 | 0.00 | 0.08 | 0.07 | 74 | 1022.1 |
| 20260906045524 | 61 | 242 | 6.0 | 9.0 | 0.00 | 0.08 | 0.07 | 76 | 1022.1 |
| 20260906045003 | 61 | 250 | 6.0 | 10.0 | 0.00 | 0.08 | 0.07 | 75 | 1022.1 |
| 20260906044503 | 61 | 244 | 6.0 | 11.0 | 0.00 | 0.08 | 0.07 | 75 | 1022.0 |
| 20260906044003 | 61 | 233 | 6.0 | 11.0 | 0.00 | 0.08 | 0.07 | 74 | 1022.0 |
| 20260906043503 | 61 | 228 | 7.0 | 10.0 | 0.00 | 0.08 | 0.07 | 75 | 1022.0 |
| 20260906043004 | 61 | 226 | 7.0 | 13.0 | 0.00 | 0.08 | 0.07 | 75 | 1022.2 |
| 20260906042503 | 61 | 229 | 8.0 | 13.0 | 0.00 | 0.08 | 0.07 | 76 | 1022.2 |
| 20260906042003 | 61 | 219 | 7.0 | 13.0 | 0.00 | 0.08 | 0.07 | 76 | 1022.2 |
| 20260906041504 | 61 | 215 | 7.0 | 13.0 | 0.00 | 0.08 | 0.07 | 76 | 1022.2 |
| 20260906041004 | 61 | 224 | 8.0 | 13.0 | 0.00 | 0.08 | 0.07 | 77 | 1022.2 |
| 20260906040503 | 61 | 237 | 7.0 | 14.0 | 0.00 | 0.08 | 0.07 | 77 | 1022.3 |
| 20260906040004 | 61 | 239 | 7.0 | 14.0 | 0.00 | 0.08 | 0.07 | 76 | 1022.3 |
| 20260906035503 | 61 | 245 | 7.0 | 11.0 | 0.00 | 0.08 | 0.07 | 76 | 1022.4 |
| 20260906035025 | 62 | 256 | 7.0 | 11.0 | 0.00 | 0.08 | 0.07 | 77 | 1022.4 |
| 20260906034504 | 61 | 254 | 7.0 | 11.0 | 0.00 | 0.08 | 0.07 | 78 | 1022.4 |
| 20260906034003 | 60 | 263 | 6.0 | 11.0 | 0.00 | 0.08 | 0.07 | 79 | 1022.4 |
| 20260906033503 | 60 | 257 | 7.0 | 10.0 | 0.00 | 0.08 | 0.07 | 78 | 1022.5 |
| 20260906033004 | 60 | 246 | 7.0 | 10.0 | 0.00 | 0.08 | 0.07 | 80 | 1022.5 |
| 20260906032503 | 60 | 257 | 6.0 | 11.0 | 0.00 | 0.08 | 0.07 | 80 | 1022.6 |
| 20260906032003 | 60 | 268 | 4.0 | 11.0 | 0.00 | 0.08 | 0.07 | 78 | 1022.6 |
| 20260906031503 | 60 | 255 | 5.0 | 10.0 | 0.00 | 0.08 | 0.07 | 78 | 1022.7 |
| 20260906031003 | 60 | 235 | 5.0 | 9.0 | 0.00 | 0.08 | 0.07 | 80 | 1022.8 |
| 20260906030504 | 59 | 239 | 5.0 | 10.0 | 0.00 | 0.08 | 0.07 | 80 | 1022.8 |
| 20260906030024 | 59 | 234 | 6.0 | 10.0 | 0.00 | 0.08 | 0.07 | 80 | 1022.9 |
| 20260906025503 | 59 | 231 | 7.0 | 11.0 | 0.00 | 0.08 | 0.07 | 81 | 1022.9 |
| 20260906025024 | 59 | 238 | 7.0 | 11.0 | 0.00 | 0.08 | 0.07 | 81 | 1022.9 |
| 20260906024504 | 59 | 251 | 7.0 | 11.0 | 0.00 | 0.08 | 0.07 | 81 | 1023.0 |
| 20260906024004 | 59 | 256 | 6.0 | 11.0 | 0.00 | 0.08 | 0.07 | 81 | 1022.9 |
| 20260906023503 | 59 | 248 | 6.0 | 10.0 | 0.00 | 0.08 | 0.07 | 81 | 1022.9 |
| 20260906023025 | 59 | 244 | 5.0 | 10.0 | 0.00 | 0.08 | 0.07 | 82 | 1023.0 |
| 20260906022503 | 59 | 224 | 5.0 | 10.0 | 0.00 | 0.08 | 0.07 | 82 | 1023.1 |
| 20260906022003 | 59 | 210 | 5.0 | 9.0 | 0.00 | 0.08 | 0.07 | 83 | 1023.1 |
| 20260906021524 | 59 | 217 | 5.0 | 9.0 | 0.00 | 0.08 | 0.07 | 84 | 1023.1 |
| 20260906021004 | 58 | 219 | 5.0 | 9.0 | 0.00 | 0.08 | 0.07 | 84 | 1023.2 |
| 20260906020503 | 58 | 221 | 5.0 | 9.0 | 0.00 | 0.08 | 0.07 | 84 | 1023.2 |
| 20260906020003 | 58 | 228 | 5.0 | 10.0 | 0.00 | 0.08 | 0.07 | 85 | 1023.2 |
| 20260906015503 | 58 | 226 | 5.0 | 10.0 | 0.00 | 0.08 | 0.07 | 85 | 1023.2 |
| 20260906015004 | 58 | 233 | 5.0 | 9.0 | 0.00 | 0.08 | 0.07 | 85 | 1023.3 |
| 20260906014524 | 58 | 246 | 6.0 | 9.0 | 0.00 | 0.08 | 0.07 | 84 | 1023.2 |
| 20260906014003 | 58 | 258 | 6.0 | 10.0 | 0.00 | 0.08 | 0.07 | 84 | 1023.2 |
| 20260906013503 | 58 | 265 | 4.0 | 10.0 | 0.00 | 0.08 | 0.07 | 83 | 1023.2 |
| 20260906013004 | 58 | 268 | 2.0 | 10.0 | 0.00 | 0.08 | 0.07 | 81 | 1023.3 |
| 20260906012504 | 59 | 238 | 1.0 | 6.0 | 0.00 | 0.08 | 0.07 | 82 | 1023.4 |
| 20260906012003 | 59 | 241 | 1.0 | 5.0 | 0.00 | 0.08 | 0.07 | 82 | 1023.4 |
| 20260906011503 | 59 | 284 | 2.0 | 5.0 | 0.00 | 0.08 | 0.07 | 84 | 1023.5 |
| 20260906011003 | 59 | 223 | 2.0 | 5.0 | 0.00 | 0.08 | 0.07 | 84 | 1023.6 |
| 20260906010504 | 59 | 231 | 2.0 | 6.0 | 0.00 | 0.08 | 0.07 | 85 | 1023.6 |
| 20260906010003 | 58 | 229 | 1.0 | 6.0 | 0.01 | 0.08 | 0.07 | 87 | 1023.6 |
| 20260906005503 | 58 | 224 | 1.0 | 5.0 | 0.01 | 0.08 | 0.07 | 88 | 1023.5 |
| 20260906005025 | 58 | 236 | 2.0 | 5.0 | 0.02 | 0.08 | 0.07 | 89 | 1023.5 |
| 20260906004503 | 58 | 188 | 3.0 | 6.0 | 0.02 | 0.08 | 0.07 | 89 | 1023.5 |
| 20260906004004 | 57 | 206 | 4.0 | 8.0 | 0.02 | 0.08 | 0.07 | 90 | 1023.5 |
| 20260906003504 | 56 | 216 | 4.0 | 8.0 | 0.02 | 0.08 | 0.07 | 90 | 1023.5 |
| 20260906003003 | 56 | 224 | 4.0 | 8.0 | 0.02 | 0.10 | 0.07 | 90 | 1023.5 |
| 20260906002504 | 55 | 252 | 4.0 | 8.0 | 0.02 | 0.13 | 0.07 | 90 | 1023.4 |
| 20260906002003 | 56 | 278 | 5.0 | 9.0 | 0.03 | 0.13 | 0.07 | 91 | 1023.4 |
| 20260906001525 | 55 | 267 | 5.0 | 9.0 | 0.03 | 0.13 | 0.07 | 90 | 1023.4 |
| 20260906001004 | 55 | 268 | 5.0 | 10.0 | 0.03 | 0.13 | 0.07 | 90 | 1023.4 |
| 20260906000504 | 56 | 282 | 4.0 | 10.0 | 0.03 | 0.13 | 0.07 | 90 | 1023.3 |
| 20260906000004 | 56 | 283 | 3.0 | 8.0 | 0.02 | 0.12 | 0.06 | 90 | 1023.3 |
| 20260905235505 | 56 | 277 | 3.0 | 6.0 | 0.02 | 0.12 | 0.06 | 90 | 1023.3 |
| 20260905235025 | 56 | 267 | 3.0 | 6.0 | 0.02 | 0.13 | 0.06 | 91 | 1023.2 |
| 20260905234504 | 55 | 266 | 3.0 | 5.0 | 0.02 | 0.19 | 0.06 | 90 | 1023.2 |
| 20260905234004 | 55 | 266 | 3.0 | 5.0 | 0.02 | 0.24 | 0.06 | 90 | 1023.2 |
| 20260905233504 | 55 | 259 | 3.0 | 5.0 | 0.02 | 0.24 | 0.06 | 90 | 1023.2 |
| 20260905233004 | 55 | 271 | 2.0 | 5.0 | 0.02 | 0.23 | 0.05 | 90 | 1023.1 |
| 20260905232504 | 55 | 287 | 1.0 | 5.0 | 0.02 | 0.23 | 0.05 | 91 | 1023.1 |
| 20260905232004 | 55 | 302 | 1.0 | 5.0 | 0.01 | 0.22 | 0.04 | 91 | 1023.0 |
| 20260905231504 | 55 | 301 | 1.0 | 5.0 | 0.01 | 0.22 | 0.04 | 90 | 1022.9 |
| 20260905231004 | 55 | 311 | 2.0 | 5.0 | 0.01 | 0.22 | 0.04 | 91 | 1022.8 |
| 20260905230504 | 54 | 337 | 3.0 | 5.0 | 0.01 | 0.22 | 0.04 | 91 | 1022.8 |
| 20260905230004 | 54 | 354 | 5.0 | 6.0 | 0.01 | 0.22 | 0.04 | 91 | 1022.8 |
| 20260905225504 | 54 | 348 | 5.0 | 8.0 | 0.01 | 0.22 | 0.04 | 91 | 1022.7 |
| 20260905225025 | 54 | 341 | 5.0 | 8.0 | 0.01 | 0.22 | 0.04 | 91 | 1022.7 |
| 20260905224504 | 54 | 342 | 5.0 | 6.0 | 0.00 | 0.21 | 0.03 | 91 | 1022.6 |
| 20260905224004 | 54 | 340 | 4.0 | 6.0 | 0.00 | 0.21 | 0.03 | 91 | 1022.5 |
| 20260905223525 | 54 | 335 | 4.0 | 6.0 | 0.00 | 0.21 | 0.03 | 91 | 1022.5 |
| 20260905223025 | 54 | 330 | 3.0 | 6.0 | 0.00 | 0.21 | 0.03 | 91 | 1022.4 |
| 20260905222504 | 54 | 311 | 1.0 | 6.0 | 0.00 | 0.21 | 0.03 | 91 | 1022.4 |
| 20260905222004 | 54 | 280 | 0.0 | 5.0 | 0.01 | 0.21 | 0.03 | 91 | 1022.3 |
| 20260905221504 | 54 | 212 | 0.0 | 1.0 | 0.01 | 0.21 | 0.03 | 91 | 1022.2 |
| 20260905221004 | 54 | 212 | 0.0 | 3.0 | 0.01 | 0.21 | 0.03 | 91 | 1022.1 |
| 20260905220504 | 54 | 212 | 0.0 | 3.0 | 0.01 | 0.21 | 0.03 | 91 | 1022.0 |
| 20260905220004 | 54 | 0 | 0.0 | 0.0 | 0.02 | 0.21 | 0.03 | 91 | 1021.9 |
| 20260905215504 | 54 | 0 | 0.0 | 0.0 | 0.02 | 0.21 | 0.03 | 91 | 1021.8 |
| 20260905215004 | 53 | 212 | 1.0 | 1.0 | 0.02 | 0.21 | 0.03 | 91 | 1021.7 |
| 20260905214525 | 53 | 207 | 1.0 | 6.0 | 0.02 | 0.21 | 0.03 | 91 | 1021.7 |
| 20260905214004 | 53 | 199 | 1.0 | 6.0 | 0.02 | 0.21 | 0.03 | 91 | 1021.7 |
| 20260905213504 | 53 | 191 | 2.0 | 6.0 | 0.02 | 0.21 | 0.03 | 91 | 1021.6 |
| 20260905213004 | 53 | 187 | 2.0 | 6.0 | 0.02 | 0.21 | 0.03 | 91 | 1021.5 |
| 20260905212504 | 53 | 186 | 2.0 | 6.0 | 0.02 | 0.21 | 0.03 | 91 | 1021.4 |
| 20260905212025 | 53 | 204 | 3.0 | 6.0 | 0.01 | 0.20 | 0.02 | 91 | 1021.3 |
| 20260905211504 | 53 | 217 | 4.0 | 8.0 | 0.01 | 0.20 | 0.02 | 91 | 1021.2 |
| 20260905211004 | 53 | 226 | 3.0 | 13.0 | 0.01 | 0.20 | 0.02 | 91 | 1021.1 |
| 20260905210504 | 53 | 224 | 1.0 | 13.0 | 0.01 | 0.20 | 0.02 | 91 | 1021.0 |
| 20260905210024 | 53 | 217 | 0.0 | 6.0 | 0.00 | 0.20 | 0.02 | 90 | 1020.9 |
| 20260905205524 | 53 | 215 | 0.0 | 3.0 | 0.00 | 0.20 | 0.02 | 90 | 1020.8 |
| 20260905205025 | 53 | 215 | 0.0 | 1.0 | 0.01 | 0.20 | 0.02 | 90 | 1020.8 |
| 20260905204503 | 53 | 215 | 0.0 | 1.0 | 0.01 | 0.20 | 0.02 | 90 | 1020.8 |
| 20260905204004 | 53 | 215 | 0.0 | 1.0 | 0.01 | 0.20 | 0.02 | 90 | 1020.8 |
| 20260905203504 | 52 | 215 | 0.0 | 1.0 | 0.01 | 0.20 | 0.02 | 90 | 1020.7 |
| 20260905203003 | 52 | 0 | 0.0 | 0.0 | 0.01 | 0.20 | 0.02 | 90 | 1020.7 |
| 20260905202504 | 52 | 0 | 0.0 | 0.0 | 0.01 | 0.20 | 0.02 | 90 | 1020.7 |
| 20260905202004 | 52 | 215 | 1.0 | 3.0 | 0.01 | 0.20 | 0.02 | 90 | 1020.7 |
| 20260905201503 | 52 | 218 | 0.0 | 3.0 | 0.01 | 0.20 | 0.02 | 90 | 1020.6 |
| 20260905201003 | 52 | 219 | 0.0 | 3.0 | 0.01 | 0.20 | 0.02 | 90 | 1020.6 |
| 20260905200525 | 52 | 0 | 0.0 | 0.0 | 0.01 | 0.20 | 0.02 | 90 | 1020.5 |
| 20260905200004 | 52 | 0 | 0.0 | 0.0 | 0.01 | 0.20 | 0.02 | 90 | 1020.5 |
| 20260905195503 | 52 | 0 | 0.0 | 0.0 | 0.01 | 0.20 | 0.02 | 90 | 1020.4 |
| 20260905195004 | 52 | 0 | 0.0 | 0.0 | 0.00 | 0.19 | 0.01 | 90 | 1020.3 |
| 20260905194504 | 52 | 0 | 0.0 | 0.0 | 0.00 | 0.19 | 0.01 | 90 | 1020.3 |
| 20260905194004 | 52 | 0 | 0.0 | 0.0 | 0.00 | 0.19 | 0.01 | 90 | 1020.2 |
| 20260905193504 | 52 | 234 | 0.0 | 1.0 | 0.00 | 0.19 | 0.01 | 89 | 1020.2 |
| 20260905193003 | 53 | 234 | 0.0 | 1.0 | 0.00 | 0.19 | 0.01 | 90 | 1020.2 |
| 20260905192504 | 53 | 234 | 0.0 | 1.0 | 0.00 | 0.19 | 0.01 | 90 | 1020.2 |
| 20260905192004 | 53 | 0 | 0.0 | 0.0 | 0.00 | 0.19 | 0.01 | 90 | 1020.2 |
| 20260905191504 | 53 | 234 | 0.0 | 3.0 | 0.00 | 0.19 | 0.01 | 89 | 1020.2 |
| 20260905191003 | 53 | 234 | 0.0 | 3.0 | 0.00 | 0.19 | 0.01 | 89 | 1020.2 |
| 20260905190503 | 53 | 234 | 1.0 | 3.0 | 0.00 | 0.19 | 0.01 | 89 | 1020.1 |
| 20260905190003 | 53 | 227 | 2.0 | 5.0 | 0.00 | 0.19 | 0.01 | 89 | 1020.1 |
| 20260905185503 | 53 | 221 | 2.0 | 5.0 | 0.00 | 0.19 | 0.01 | 89 | 1020.1 |
| 20260905185004 | 53 | 223 | 1.0 | 5.0 | 0.00 | 0.19 | 0.01 | 89 | 1020.0 |
| 20260905184504 | 53 | 242 | 2.0 | 5.0 | 0.00 | 0.19 | 0.01 | 89 | 1020.0 |
| 20260905184003 | 53 | 246 | 3.0 | 5.0 | 0.00 | 0.19 | 0.01 | 89 | 1019.9 |
| 20260905183503 | 53 | 246 | 3.0 | 6.0 | 0.01 | 0.19 | 0.01 | 89 | 1019.8 |
| 20260905183025 | 54 | 248 | 4.0 | 8.0 | 0.01 | 0.19 | 0.01 | 89 | 1019.8 |
| 20260905182504 | 54 | 247 | 4.0 | 9.0 | 0.01 | 0.19 | 0.01 | 89 | 1019.8 |
| 20260905182003 | 54 | 248 | 4.0 | 9.0 | 0.01 | 0.19 | 0.01 | 89 | 1019.8 |
| 20260905181504 | 54 | 254 | 4.0 | 8.0 | 0.01 | 0.19 | 0.01 | 88 | 1019.7 |
| 20260905181003 | 54 | 258 | 5.0 | 8.0 | 0.01 | 0.19 | 0.01 | 88 | 1019.7 |
| 20260905180503 | 54 | 256 | 4.0 | 8.0 | 0.01 | 0.19 | 0.01 | 88 | 1019.7 |
| 20260905180003 | 54 | 255 | 5.0 | 8.0 | 0.01 | 0.19 | 0.01 | 88 | 1019.7 |
| 20260905175503 | 54 | 251 | 6.0 | 9.0 | 0.01 | 0.19 | 0.01 | 87 | 1019.7 |
| 20260905175004 | 54 | 252 | 6.0 | 9.0 | 0.01 | 0.19 | 0.01 | 87 | 1019.7 |
| 20260905174503 | 54 | 252 | 7.0 | 9.0 | 0.01 | 0.19 | 0.01 | 87 | 1019.7 |
| 20260905174004 | 54 | 230 | 7.0 | 11.0 | 0.01 | 0.19 | 0.01 | 86 | 1019.7 |
| 20260905173504 | 54 | 208 | 6.0 | 14.0 | 0.00 | 0.18 | 0.00 | 86 | 1019.7 |
| 20260905173024 | 54 | 213 | 6.0 | 14.0 | 0.00 | 0.18 | 0.00 | 86 | 1019.8 |
| 20260905172503 | 54 | 236 | 7.0 | 10.0 | 0.00 | 0.18 | 0.00 | 86 | 1019.8 |
| 20260905172003 | 54 | 244 | 8.0 | 14.0 | 0.00 | 0.18 | 0.00 | 86 | 1019.9 |
| 20260905171504 | 55 | 247 | 7.0 | 14.0 | 0.00 | 0.18 | 0.00 | 86 | 1020.0 |
| 20260905171003 | 55 | 253 | 6.0 | 13.0 | 0.00 | 0.18 | 0.00 | 87 | 1020.0 |
| 20260905170503 | 55 | 252 | 5.0 | 11.0 | 0.00 | 0.18 | 0.00 | 87 | 1020.1 |
| 20260905170003 | 55 | 245 | 5.0 | 11.0 | 0.00 | 0.18 | 0.00 | 87 | 1020.1 |
| 20260905165503 | 55 | 248 | 4.0 | 9.0 | 0.00 | 0.18 | 0.00 | 87 | 1020.1 |
| 20260905165003 | 54 | 254 | 2.0 | 9.0 | 0.00 | 0.18 | 0.00 | 87 | 1020.1 |
| 20260905164504 | 55 | 258 | 1.0 | 6.0 | 0.00 | 0.18 | 0.00 | 87 | 1020.1 |
| 20260905164003 | 55 | 251 | 1.0 | 5.0 | 0.00 | 0.18 | 0.00 | 87 | 1020.1 |
| 20260905163504 | 55 | 234 | 1.0 | 4.0 | 0.00 | 0.18 | 0.00 | 87 | 1020.1 |
| 20260905163003 | 55 | 234 | 2.0 | 5.0 | 0.00 | 0.18 | 0.00 | 86 | 1020.2 |
| 20260905162503 | 55 | 212 | 3.0 | 6.0 | 0.00 | 0.18 | 0.00 | 86 | 1020.2 |
| 20260905162003 | 55 | 200 | 6.0 | 9.0 | 0.00 | 0.18 | 0.00 | 86 | 1020.2 |
| 20260905161524 | 55 | 210 | 6.0 | 11.0 | 0.00 | 0.18 | 0.00 | 86 | 1020.1 |
| 20260905161004 | 55 | 222 | 6.0 | 11.0 | 0.00 | 0.18 | 0.00 | 85 | 1020.2 |
| 20260905160525 | 55 | 238 | 6.0 | 11.0 | 0.00 | 0.18 | 0.00 | 85 | 1020.2 |
| 20260905160003 | 55 | 255 | 6.0 | 11.0 | 0.00 | 0.18 | 0.00 | 85 | 1020.3 |
| 20260905155503 | 55 | 262 | 6.0 | 10.0 | 0.00 | 0.18 | 0.00 | 85 | 1020.1 |
| 20260905155003 | 55 | 255 | 6.0 | 10.0 | 0.00 | 0.18 | 0.00 | 85 | 1020.1 |
| 20260905154503 | 55 | 249 | 7.0 | 11.0 | 0.00 | 0.18 | 0.00 | 85 | 1020.1 |
| 20260905154003 | 55 | 250 | 8.0 | 11.0 | 0.00 | 0.18 | 0.00 | 85 | 1020.1 |
| 20260905153504 | 55 | 249 | 8.0 | 13.0 | 0.00 | 0.18 | 0.00 | 86 | 1020.1 |
| 20260905153024 | 55 | 254 | 8.0 | 13.0 | 0.00 | 0.18 | 0.00 | 85 | 1020.2 |
| 20260905152503 | 55 | 264 | 7.0 | 11.0 | 0.00 | 0.18 | 0.00 | 86 | 1020.3 |
| 20260905152003 | 55 | 264 | 6.0 | 14.0 | 0.00 | 0.18 | 0.00 | 86 | 1020.2 |
| 20260905151503 | 55 | 258 | 6.0 | 14.0 | 0.00 | 0.18 | 0.00 | 86 | 1020.2 |
| 20260905151003 | 55 | 253 | 6.0 | 11.0 | 0.00 | 0.18 | 0.00 | 86 | 1020.0 |
| 20260905150504 | 55 | 251 | 6.0 | 13.0 | 0.00 | 0.18 | 0.00 | 86 | 1020.1 |
| 20260905150003 | 55 | 248 | 6.0 | 13.0 | 0.00 | 0.18 | 0.00 | 86 | 1020.1 |
| 20260905145504 | 55 | 251 | 7.0 | 13.0 | 0.00 | 0.18 | 0.00 | 86 | 1019.9 |
| 20260905145003 | 55 | 248 | 7.0 | 13.0 | 0.00 | 0.18 | 0.00 | 85 | 1020.0 |
| 20260905144503 | 55 | 247 | 7.0 | 13.0 | 0.00 | 0.18 | 0.00 | 85 | 1020.0 |
| 20260905144003 | 55 | 261 | 6.0 | 13.0 | 0.00 | 0.18 | 0.00 | 85 | 1019.9 |
| 20260905143525 | 55 | 269 | 6.0 | 10.0 | 0.00 | 0.18 | 0.00 | 84 | 1020.0 |
| 20260905143006 | 55 | 259 | 6.0 | 10.0 | 0.00 | 0.18 | 0.00 | 84 | 1019.9 |
| 20260905142525 | 55 | 259 | 6.0 | 9.0 | 0.00 | 0.18 | 0.18 | 84 | 1020.0 |
| 20260905142024 | 55 | 254 | 6.0 | 10.0 | 0.00 | 0.18 | 0.18 | 84 | 1020.0 |
| 20260905141503 | 55 | 257 | 6.0 | 13.0 | 0.00 | 0.18 | 0.18 | 84 | 1020.0 |
| 20260905141004 | 55 | 257 | 6.0 | 13.0 | 0.00 | 0.18 | 0.18 | 84 | 1020.0 |
| 20260905140504 | 55 | 248 | 6.0 | 11.0 | 0.00 | 0.18 | 0.18 | 84 | 1020.0 |
| 20260905140004 | 55 | 256 | 6.0 | 11.0 | 0.00 | 0.18 | 0.18 | 84 | 1020.0 |
| 20260905135504 | 55 | 266 | 6.0 | 11.0 | 0.00 | 0.18 | 0.18 | 83 | 1020.1 |
| 20260905135004 | 55 | 262 | 7.0 | 10.0 | 0.00 | 0.18 | 0.18 | 83 | 1020.0 |
| 20260905134504 | 55 | 261 | 8.0 | 11.0 | 0.00 | 0.18 | 0.18 | 83 | 1020.0 |
| 20260905134004 | 55 | 262 | 8.0 | 11.0 | 0.00 | 0.18 | 0.18 | 82 | 1020.0 |
| 20260905133504 | 55 | 262 | 8.0 | 11.0 | 0.00 | 0.18 | 0.18 | 82 | 1020.0 |
| 20260905133025 | 55 | 263 | 8.0 | 11.0 | 0.00 | 0.18 | 0.18 | 82 | 1020.0 |
| 20260905132504 | 56 | 262 | 8.0 | 11.0 | 0.00 | 0.18 | 0.18 | 82 | 1020.0 |
| 20260905132004 | 56 | 257 | 8.0 | 13.0 | 0.00 | 0.18 | 0.18 | 82 | 1019.9 |
| 20260905131504 | 56 | 257 | 9.0 | 14.0 | 0.00 | 0.18 | 0.18 | 81 | 1019.9 |
| 20260905131004 | 56 | 256 | 9.0 | 18.0 | 0.00 | 0.18 | 0.18 | 81 | 1019.9 |
| 20260905130504 | 56 | 255 | 9.0 | 18.0 | 0.00 | 0.18 | 0.18 | 81 | 1019.8 |
| 20260905130004 | 56 | 254 | 10.0 | 15.0 | 0.00 | 0.18 | 0.18 | 81 | 1019.6 |
| 20260905125504 | 56 | 251 | 10.0 | 17.0 | 0.00 | 0.18 | 0.18 | 81 | 1019.7 |
| 20260905125004 | 56 | 255 | 10.0 | 17.0 | 0.00 | 0.18 | 0.18 | 81 | 1019.7 |
| 20260905124504 | 56 | 259 | 9.0 | 18.0 | 0.00 | 0.18 | 0.18 | 80 | 1019.7 |
| 20260905124004 | 56 | 259 | 8.0 | 18.0 | 0.00 | 0.18 | 0.18 | 80 | 1019.6 |
| 20260905123504 | 56 | 255 | 8.0 | 15.0 | 0.00 | 0.18 | 0.18 | 80 | 1019.6 |
| 20260905123004 | 56 | 252 | 9.0 | 15.0 | 0.00 | 0.18 | 0.18 | 80 | 1019.5 |
| 20260905122504 | 56 | 253 | 9.0 | 15.0 | 0.00 | 0.18 | 0.18 | 80 | 1019.4 |
| 20260905122004 | 56 | 250 | 10.0 | 18.0 | 0.00 | 0.18 | 0.18 | 80 | 1019.4 |
| 20260905121525 | 56 | 240 | 11.0 | 18.0 | 0.00 | 0.18 | 0.18 | 80 | 1019.3 |
| 20260905121004 | 56 | 241 | 11.0 | 19.0 | 0.00 | 0.19 | 0.18 | 80 | 1019.3 |
| 20260905120504 | 56 | 249 | 10.0 | 23.0 | 0.00 | 0.19 | 0.18 | 80 | 1019.2 |
| 20260905120004 | 56 | 247 | 11.0 | 23.0 | 0.00 | 0.19 | 0.18 | 81 | 1019.1 |
| 20260905115504 | 56 | 246 | 11.0 | 18.0 | 0.00 | 0.19 | 0.18 | 81 | 1019.0 |
| 20260905115004 | 56 | 254 | 10.0 | 25.0 | 0.00 | 0.19 | 0.18 | 81 | 1019.0 |
| 20260905114504 | 56 | 257 | 9.0 | 25.0 | 0.00 | 0.19 | 0.18 | 80 | 1019.0 |
| 20260905114004 | 56 | 253 | 8.0 | 19.0 | 0.00 | 0.19 | 0.18 | 79 | 1019.0 |
| 20260905113525 | 56 | 251 | 8.0 | 14.0 | 0.01 | 0.19 | 0.18 | 79 | 1018.9 |
| 20260905113004 | 56 | 251 | 9.0 | 13.0 | 0.01 | 0.19 | 0.18 | 79 | 1018.8 |
| 20260905112504 | 56 | 250 | 9.0 | 17.0 | 0.01 | 0.19 | 0.18 | 80 | 1018.7 |
| 20260905112025 | 56 | 248 | 9.0 | 17.0 | 0.01 | 0.19 | 0.18 | 80 | 1018.7 |
| 20260905111504 | 56 | 245 | 9.0 | 14.0 | 0.01 | 0.19 | 0.18 | 80 | 1018.7 |
| 20260905111004 | 56 | 245 | 10.0 | 15.0 | 0.01 | 0.19 | 0.18 | 80 | 1018.6 |
| 20260905110525 | 56 | 243 | 10.0 | 19.0 | 0.01 | 0.19 | 0.18 | 80 | 1018.6 |
| 20260905110004 | 56 | 245 | 9.0 | 19.0 | 0.01 | 0.19 | 0.18 | 80 | 1018.5 |
| 20260905105504 | 56 | 241 | 8.0 | 17.0 | 0.01 | 0.19 | 0.18 | 80 | 1018.5 |
| 20260905105025 | 56 | 239 | 9.0 | 17.0 | 0.01 | 0.19 | 0.18 | 80 | 1018.4 |
| 20260905104504 | 56 | 241 | 11.0 | 20.0 | 0.01 | 0.19 | 0.18 | 80 | 1018.4 |
| 20260905104004 | 56 | 242 | 11.0 | 20.0 | 0.01 | 0.19 | 0.18 | 79 | 1018.3 |
| 20260905103504 | 56 | 242 | 10.0 | 20.0 | 0.00 | 0.18 | 0.17 | 78 | 1018.3 |
| 20260905103025 | 57 | 246 | 9.0 | 20.0 | 0.00 | 0.18 | 0.17 | 77 | 1018.3 |
| 20260905102504 | 57 | 254 | 9.0 | 17.0 | 0.00 | 0.18 | 0.17 | 75 | 1018.1 |
| 20260905102004 | 57 | 250 | 8.0 | 19.0 | 0.00 | 0.18 | 0.17 | 75 | 1018.0 |
| 20260905101504 | 57 | 252 | 7.0 | 19.0 | 0.00 | 0.18 | 0.17 | 75 | 1017.9 |
| 20260905101025 | 57 | 257 | 7.0 | 10.0 | 0.00 | 0.18 | 0.17 | 76 | 1017.9 |
| 20260905100525 | 57 | 248 | 8.0 | 14.0 | 0.00 | 0.18 | 0.17 | 75 | 1017.9 |
| 20260905100004 | 57 | 243 | 9.0 | 14.0 | 0.00 | 0.18 | 0.17 | 75 | 1017.8 |
| 20260905095504 | 57 | 243 | 9.0 | 17.0 | 0.00 | 0.18 | 0.17 | 74 | 1017.7 |
| 20260905095004 | 57 | 247 | 9.0 | 17.0 | 0.00 | 0.18 | 0.17 | 74 | 1017.7 |
| 20260905094504 | 57 | 248 | 9.0 | 17.0 | 0.00 | 0.18 | 0.17 | 73 | 1017.5 |
| 20260905094025 | 57 | 243 | 10.0 | 17.0 | 0.00 | 0.18 | 0.17 | 73 | 1017.4 |
| 20260905093525 | 57 | 243 | 12.0 | 18.0 | 0.00 | 0.18 | 0.17 | 73 | 1017.3 |
| 20260905093004 | 57 | 245 | 14.0 | 23.0 | 0.00 | 0.18 | 0.17 | 72 | 1017.2 |
| 20260905092504 | 57 | 245 | 13.0 | 25.0 | 0.00 | 0.18 | 0.17 | 72 | 1017.1 |
| 20260905092004 | 58 | 243 | 13.0 | 27.0 | 0.00 | 0.18 | 0.17 | 72 | 1017.0 |
| 20260905091504 | 58 | 246 | 14.0 | 27.0 | 0.00 | 0.18 | 0.17 | 71 | 1016.9 |
| 20260905091003 | 58 | 249 | 15.0 | 27.0 | 0.00 | 0.18 | 0.17 | 71 | 1016.9 |
| 20260905090504 | 58 | 246 | 14.0 | 25.0 | 0.00 | 0.18 | 0.17 | 70 | 1016.8 |
| 20260905090004 | 58 | 243 | 13.0 | 27.0 | 0.00 | 0.18 | 0.17 | 70 | 1016.8 |
| 20260905085504 | 58 | 243 | 13.0 | 27.0 | 0.00 | 0.18 | 0.17 | 70 | 1016.8 |
| 20260905085004 | 58 | 243 | 12.0 | 27.0 | 0.00 | 0.18 | 0.17 | 70 | 1016.6 |
| 20260905084504 | 58 | 245 | 12.0 | 27.0 | 0.00 | 0.18 | 0.17 | 69 | 1016.6 |
| 20260905084004 | 58 | 249 | 12.0 | 25.0 | 0.00 | 0.18 | 0.17 | 68 | 1016.5 |
| 20260905083525 | 58 | 251 | 13.0 | 25.0 | 0.00 | 0.18 | 0.17 | 68 | 1016.5 |
| 20260905083003 | 58 | 253 | 14.0 | 20.0 | 0.00 | 0.18 | 0.17 | 68 | 1016.4 |
| 20260905082504 | 58 | 253 | 13.0 | 25.0 | 0.00 | 0.18 | 0.17 | 70 | 1016.3 |
| 20260905082003 | 58 | 255 | 12.0 | 27.0 | 0.00 | 0.18 | 0.17 | 70 | 1016.2 |
| 20260905081503 | 58 | 260 | 13.0 | 27.0 | 0.00 | 0.18 | 0.17 | 70 | 1016.2 |
| 20260905081004 | 58 | 258 | 15.0 | 25.0 | 0.00 | 0.18 | 0.17 | 70 | 1016.0 |
| 20260905080503 | 58 | 245 | 15.0 | 27.0 | 0.00 | 0.18 | 0.17 | 70 | 1015.8 |
| 20260905080004 | 58 | 247 | 14.0 | 27.0 | 0.00 | 0.18 | 0.17 | 70 | 1015.6 |
| 20260905075504 | 59 | 254 | 15.0 | 28.0 | 0.00 | 0.18 | 0.17 | 69 | 1015.4 |
| 20260905075004 | 59 | 253 | 16.0 | 28.0 | 0.00 | 0.18 | 0.17 | 67 | 1015.4 |
| 20260905074503 | 59 | 254 | 17.0 | 30.0 | 0.00 | 0.18 | 0.17 | 67 | 1015.2 |
| 20260905074003 | 59 | 252 | 18.0 | 30.0 | 0.00 | 0.18 | 0.17 | 67 | 1015.0 |
| 20260905073504 | 59 | 251 | 18.0 | 29.0 | 0.00 | 0.18 | 0.17 | 69 | 1015.0 |
| 20260905073004 | 60 | 253 | 20.0 | 36.0 | 0.00 | 0.18 | 0.17 | 68 | 1015.0 |
| 20260905072503 | 60 | 252 | 21.0 | 36.0 | 0.00 | 0.18 | 0.17 | 69 | 1014.9 |
| 20260905072003 | 60 | 253 | 20.0 | 38.0 | 0.00 | 0.18 | 0.17 | 68 | 1015.1 |
| 20260905071524 | 60 | 251 | 20.0 | 38.0 | 0.00 | 0.18 | 0.17 | 67 | 1014.9 |
| 20260905071004 | 61 | 242 | 21.0 | 36.0 | 0.00 | 0.18 | 0.17 | 66 | 1014.7 |
| 20260905070503 | 61 | 245 | 21.0 | 38.0 | 0.00 | 0.18 | 0.17 | 66 | 1014.6 |
| 20260905070004 | 60 | 253 | 21.0 | 38.0 | 0.00 | 0.18 | 0.17 | 66 | 1014.5 |
| 20260905065503 | 60 | 252 | 20.0 | 38.0 | 0.00 | 0.18 | 0.17 | 65 | 1014.5 |
| 20260905065004 | 60 | 246 | 20.0 | 38.0 | 0.00 | 0.18 | 0.17 | 65 | 1014.5 |
| 20260905064503 | 60 | 252 | 22.0 | 38.0 | 0.00 | 0.18 | 0.17 | 66 | 1014.4 |
| 20260905064004 | 60 | 257 | 23.0 | 42.0 | 0.00 | 0.18 | 0.17 | 66 | 1014.2 |
| 20260905063503 | 60 | 252 | 22.0 | 42.0 | 0.00 | 0.18 | 0.17 | 65 | 1014.3 |
| 20260905063004 | 60 | 250 | 22.0 | 41.0 | 0.00 | 0.18 | 0.17 | 63 | 1014.1 |
| 20260905062504 | 61 | 253 | 22.0 | 38.0 | 0.00 | 0.18 | 0.17 | 64 | 1014.2 |